Location: Unspecified
(43.1763°N, 179.4719°W)
Time: 09:11:01
(UTC-04:00)

Cosmos 1674 - Visible Passes

Search period start: 20 May 2019 00:00
Search period end: 30 May 2019 00:00
Orbit: 496 x 519 km, 82.5° (Epoch: 19 May)

Date Brightness Start Highest point End Pass type
(mag) Time Alt. Az. Time Alt. Az. Time Alt. Az.
20 May 5.4 08:13:29 12° ENE 08:13:29 12° ENE 08:14:33 10° ENE visible
20 May 3.2 09:48:19 47° WNW 09:48:19 47° WNW 09:51:53 10° N visible
21 May 3.0 09:30:57 59° NW 09:30:57 59° NW 09:34:25 10° N visible
22 May 3.0 09:13:34 65° N 09:13:34 65° N 09:16:56 10° N visible
23 May 3.2 08:56:11 57° NE 08:56:11 57° NE 08:59:22 10° NNE visible
24 May 3.6 08:38:46 45° NE 08:38:46 45° NE 08:41:47 10° NNE visible
24 May 5.1 10:13:37 11° WNW 10:13:55 11° WNW 10:15:05 10° NW visible
25 May 4.0 08:21:21 35° ENE 08:21:21 35° ENE 08:24:09 10° NNE visible
25 May 4.9 09:56:11 14° WNW 09:56:17 14° WNW 09:58:23 10° NW visible
26 May 4.3 08:03:55 28° ENE 08:03:55 28° ENE 08:06:28 10° NNE visible
26 May 4.7 09:38:45 18° WNW 09:38:45 18° WNW 09:41:20 10° NNW visible
27 May 4.6 07:46:29 22° ENE 07:46:29 22° ENE 07:48:41 10° NE visible
27 May 4.4 09:21:19 22° WNW 09:21:19 22° WNW 09:24:07 10° NNW visible
28 May 4.9 07:29:01 17° ENE 07:29:01 17° ENE 07:30:51 10° NE visible
28 May 4.2 09:03:51 28° WNW 09:03:51 28° WNW 09:06:48 10° NNW visible
29 May 5.1 07:11:33 14° ENE 07:11:33 14° ENE 07:12:50 10° NE visible
29 May 3.9 08:46:23 35° WNW 08:46:23 35° WNW 08:49:26 10° N visible
